Details From NZAA - Auckland International
To YBRM - Broome Intl
Flight Number -
Tags Generated
Created
Modified
Stats Distance 2,983 nm / 5,524 km
Max Altitude 0 ft / 0 m
Waypoints 6
Social Downloads 1
Likes 0
Share VATSIM

Download

Looking for another format? Having issues loading an existing format? Contact us
Advertisement - Login to hide

Notes

Generated

Route

NZAA YOGGI DOXIE OOMWH BRMEC YBRM

ID Type Via Altitude Latitude Longitude Leg Dist Tot Dist Heading (true) Name
O NZAA APT - 0 ft / 0 m -37.01438˚ 174.77090˚ - 0 nm - -
YOGGI FIX - 0 ft / 0 m -32.55250˚ 151.89733˚ 1156 nm 1156 nm 277° / 290° -
DOXIE FIX - 0 ft / 0 m -31.13833˚ 148.10167˚ 211 nm 1368 nm 293° / 295° -
OOMWH FIX - 0 ft / 0 m -27.98995˚ 140.24639˚ 451 nm 1819 nm 293° / 297° -
BRMEC FIX - 0 ft / 0 m -18.07826˚ 122.41803˚ 1149 nm 2968 nm 297° / 304° -
O YBRM APT - 0 ft / 0 m -17.94581˚ 122.21626˚ 14 nm 2982 nm 305° / 305° -

Altitude Profile

Advertisement - Login to hide

Weather


0- 5 10 15 20 25 30 35+ Temperature / ° C

Clouds and Precipitation
Forecast for 2018-05-20 18:00 UTC. Updated 4 hours ago

Ground ~20,000 ft ~40,000 ft Winds

NZAA

Details ICAO NZAA (AKL)
Name Auckland International
Region New Zealand and Antarctica
Timezone Pacific/Auckland (UTC+12.0)
Stats Elevation 23 ft / 7 m (AMSL)
Location -37.010794° 174.787331°
Runways 2
Magnetic Variation 19.856° E

METAR

NZAA 202130Z AUTO 29010KT 9999 FEW028/// 18/14 Q1010 NOSIG

Decode

TAF

TAF NZAA 201706Z 2018/2118 30008KT 9999 -SHRA BKN030 TEMPO 2020/2106 4000 SHRA FEW020TCU TEMPO 2106/2112 6000 SHRA TEMPO 2112/2118 6000 SHRA BKN008

Decode

Departure Runways

ID Width Length Bearing (true) Bearing (mag) Surface Threshold Offset Overrun Length
05L 157 ft / 48 m 10,844 ft / 3,305 m 70.91° 51.05° Concrete 1,240 ft / 378 m 460 ft / 140 m
05R 152 ft / 46 m 12,085 ft / 3,684 m 70.96° 51.10° Concrete 1,270 ft / 387 m 0 ft / 0 m
23L 152 ft / 46 m 12,085 ft / 3,684 m 250.94° 231.08° Concrete 0 ft / 0 m 0 ft / 0 m
23R 157 ft / 48 m 10,844 ft / 3,305 m 250.89° 231.03° Concrete 1,060 ft / 323 m 0 ft / 0 m

YBRM

Details ICAO YBRM
Name Broome Intl
Region Australia
Timezone Australia/Perth (UTC+8.0)
Stats Elevation 56 ft / 17 m (AMSL)
Location -17.948745° 122.227225°
Runways 1
Magnetic Variation 1.768° E

METAR

YBRM 202100Z AUTO 10006KT 9999 // NCD 14/07 Q1014

Decode

TAF

TAF YBRM 201707Z 2018/2118 11008KT CAVOK BECMG 2100/2101 09018G28KT CAVOK FM210500 09014KT CAVOK FM211000 13008KT CAVOK

Decode

Destination Runways

ID Width Length Bearing (true) Bearing (mag) Surface Threshold Offset Overrun Length
10 148 ft / 45 m 8,325 ft / 2,537 m 105.60° 103.83° Asphalt 292 ft / 89 m 52 ft / 16 m
28 148 ft / 45 m 8,325 ft / 2,537 m 285.60° 283.83° Asphalt 666 ft / 203 m 0 ft / 0 m